This demonstration page uses our WeatherBlox Daily Observations layout. Learn more.

Left ArrowRight Arrow

Hourly Observations for December 15, 2019

Temp ( °F °C ) Dew Point ( °F °C ) Humidity (%) Winds ( mph kmh ) Pressure ( in mb ) Visibility ( mi km ) Precip ( " mm )
12:52 am 00:52 Cloudy 16 -8.9 8 -13.3 71 71 NNE 7 11 30.10 1019 10 16 0.00 0.00
1:52 am 01:52 Cloudy 15 -9.4 7 -13.9 70 70 NNE 3 6 30.09 1019 10 16 0.00 0.00
2:52 am 02:52 Mostly Cloudy 15 -9.4 8 -13.3 74 74 N 3 6 30.12 1020 10 16 0.00 0.00
3:52 am 03:52 Mostly Cloudy 15 -9.4 7 -13.9 70 70 ENE 3 6 30.11 1020 10 16 0.00 0.00
4:52 am 04:52 Mostly Cloudy 14 -10 8 -13.3 77 77 N 3 6 30.11 1020 10 16 0.00 0.00
5:52 am 05:52 Cloudy 16 -8.9 8 -13.3 71 71 NNE 5 7 30.13 1020 10 16 0.00 0.00
6:52 am 06:52 Cloudy 16 -8.9 8 -13.3 71 71 E 5 7 30.14 1021 10 16 0.00 0.00
7:52 am 07:52 Cloudy with Light Snow 16 -8.9 9 -12.8 74 74 SE 6 9 30.13 1020 2 3 0.00 0.00
8:08 am 08:08 Cloudy with Light Snow 16 -8.9 10 -12.2 77 77 ESE 6 9 30.17 1022 2 3 0.00 0.00
8:52 am 08:52 Cloudy with Light Snow 16 -8.9 12 -11.1 84 84 E 7 11 30.12 1020 2 3 0.02 0.51
8:59 am 08:59 Cloudy with Light Snow 16 -8.9 11 -11.7 80 80 ESE 5 7 30.17 1022 2 2 0.00 0.00
9:52 am 09:52 Cloudy with Light Snow 17 -8.3 13 -10.6 84 84 ENE 3 6 30.14 1021 2 2 0.01 0.25
10:19 am 10:19 Cloudy with Light Snow 17 -8.3 13 -10.6 84 84 ESE 6 9 30.18 1022 2 3 0.00 0.00
10:52 am 10:52 Cloudy with Light Snow 17 -8.3 13 -10.6 84 84 ESE 3 6 30.13 1020 2 3 0.01 0.25
11:05 am 11:05 Cloudy with Light Snow 18 -7.8 14 -10 84 84 E 3 6 30.18 1022 2 2 0.00 0.00
11:52 am 11:52 Cloudy with Light Snow 18 -7.8 14 -10 84 84 ESE 3 6 30.12 1020 2 2 0.01 0.25
12:52 pm 12:52 Cloudy with Light Snow 20 -6.7 15 -9.4 81 81 ENE 3 6 30.10 1019 2 2 0.02 0.51
1:13 pm 13:13 Cloudy with Light Snow 20 -6.7 15 -9.4 81 81 Calm 30.13 1020 2 3 0.01 0.25
1:52 pm 13:52 Cloudy with Light Snow 20 -6.7 15 -9.4 81 81 Calm 30.09 1019 2 3 0.01 0.25
2:28 pm 14:28 Cloudy with Light Snow 20 -6.7 16 -8.9 85 85 NNW 5 7 30.10 1019 7 11 0.01 0.25
2:52 pm 14:52 Cloudy 21 -6.1 16 -8.9 81 81 Calm 30.08 1019 10 16 0.01 0.25
3:52 pm 15:52 Cloudy 21 -6.1 16 -8.9 81 81 N 8 13 30.08 1019 10 16 0.00 0.00
4:52 pm 16:52 Cloudy 20 -6.7 16 -8.9 85 85 N 6 9 30.10 1019 10 16 0.00 0.00
5:26 pm 17:26 Cloudy 21 -6.1 16 -8.9 81 81 VRB 3 6 30.14 1021 10 16 0.00 0.00
5:52 pm 17:52 Cloudy 21 -6.1 16 -8.9 81 81 NNE 5 7 30.12 1020 10 16 0.00 0.00
6:52 pm 18:52 Cloudy 21 -6.1 16 -8.9 81 81 Calm 30.14 1021 10 16 0.00 0.00
7:42 pm 19:42 Cloudy 21 -6.1 16 -8.9 81 81 Calm 30.18 1022 10 16 0.00 0.00
7:52 pm 19:52 Cloudy 21 -6.1 17 -8.3 85 85 Calm 30.15 1021 10 16 0.00 0.00
8:52 pm 20:52 Cloudy 21 -6.1 16 -8.9 81 81 Calm 30.15 1021 10 16 0.00 0.00
9:52 pm 21:52 Cloudy 21 -6.1 16 -8.9 81 81 Calm 30.15 1021 10 16 0.00 0.00
10:52 pm 22:52 Cloudy 22 -5.6 17 -8.3 82 82 Calm 30.16 1021 10 16 0.00 0.00
11:52 pm 23:52 Cloudy 21 -6.1 17 -8.3 85 85 Calm 30.18 1022 10 16 0.00 0.00

Powered by AerisWeather